FW4751 Weather Reports


Display with metric or nautical units.
time (UTC)temp
F
wind
direction
speed
MPH
gust
MPH
rain 1hr
in
rain 24hr
in
rain mn
in
humidity
%
barometer
mb
20260502193003 66 225 2.0 7.0 0.00 0.00 0.00 67 1014.6
20260502192503 65 293 3.0 8.0 0.00 0.00 0.00 67 1014.6
20260502192004 65 225 4.0 12.0 0.00 0.00 0.00 67 1014.5
20260502191503 64 248 3.0 7.0 0.00 0.00 0.00 68 1014.6
20260502191004 64 248 3.0 7.0 0.00 0.00 0.00 67 1014.7
20260502190504 65 248 3.0 7.0 0.00 0.00 0.00 67 1014.6
20260502190004 64 315 2.0 9.0 0.00 0.00 0.00 68 1014.8
20260502185503 64 315 3.0 7.0 0.00 0.00 0.00 69 1014.7
20260502185004 64 315 2.0 6.0 0.00 0.00 0.00 68 1014.8
20260502184504 64 293 3.0 8.0 0.00 0.00 0.00 68 1014.8
20260502184003 64 293 2.0 6.0 0.00 0.00 0.00 68 1014.8
20260502183504 64 225 3.0 8.0 0.00 0.00 0.00 68 1014.7
20260502183023 64 270 2.0 7.0 0.00 0.00 0.00 68 1014.7
20260502182003 64 293 2.0 6.0 0.00 0.00 0.00 69 1014.6
20260502181524 63 315 2.0 6.0 0.00 0.00 0.00 69 1014.6
20260502181004 63 315 2.0 6.0 0.00 0.00 0.00 71 1014.7
20260502180504 62 225 2.0 4.0 0.00 0.00 0.00 72 1014.7
20260502170504 59 293 2.0 5.0 0.00 0.00 0.00 78 1014.7
20260502164003 58 248 2.0 5.0 0.00 0.00 0.00 79 1014.7
20260502163523 58 248 2.0 5.0 0.00 0.00 0.00 79 1014.7
20260502163003 58 225 2.0 5.0 0.00 0.00 0.00 79 1014.6
20260502162523 57 293 2.0 8.0 0.00 0.00 0.00 80 1014.6
20260502162003 57 270 2.0 8.0 0.00 0.00 0.00 80 1014.6
20260502161504 57 225 2.0 7.0 0.00 0.00 0.00 80 1014.6
20260502161003 57 248 2.0 5.0 0.00 0.00 0.00 79 1014.6
20260502160503 57 225 2.0 6.0 0.00 0.00 0.00 79 1014.6
20260502152003 57 270 1.0 5.0 0.00 0.00 0.00 80 1014.0
20260502151503 57 270 1.0 5.0 0.00 0.00 0.00 80 1014.1
20260502151003 57 270 2.0 5.0 0.00 0.00 0.00 81 1014.0
20260502150503 57 248 1.0 3.0 0.00 0.00 0.00 81 1014.0
20260502130503 56 270 1.0 3.0 0.00 0.00 0.00 83 1013.2
20260502123505 56 248 1.0 2.0 0.00 0.00 0.00 83 1013.1
20260502123004 56 225 1.0 3.0 0.00 0.00 0.00 83 1013.0
20260502122505 56 248 1.0 4.0 0.00 0.00 0.00 84 1013.0
20260502122005 56 0.0 2.0 0.00 0.00 0.00 84 1012.9
20260502121505 56 225 1.0 3.0 0.00 0.00 0.00 84 1013.1
20260502121005 56 225 1.0 3.0 0.00 0.00 0.00 84 1013.0
20260502120504 56 0.0 1.0 0.00 0.00 0.00 84 1013.1
20260502115505 56 338 1.0 3.0 0.00 0.00 0.00 84 1013.1
20260502115045 56 315 1.0 2.0 0.00 0.00 0.00 84 1013.1
20260502114005 56 0.0 2.0 0.00 0.00 0.00 83 1013.1
20260502113504 56 0 1.0 3.0 0.00 0.00 0.00 83 1013.2
20260502113004 56 338 1.0 3.0 0.00 0.00 0.00 83 1013.1
20260502112530 56 315 1.0 3.0 0.00 0.00 0.00 83 1013.1
20260502112005 56 338 1.0 3.0 0.00 0.00 0.00 83 1013.1
20260502111524 56 315 1.0 2.0 0.00 0.00 0.00 84 1013.0
20260502111005 56 338 1.0 2.0 0.00 0.00 0.00 84 1013.1
20260502110504 56 338 1.0 2.0 0.00 0.00 0.00 84 1013.2
20260502110005 56 0.0 1.0 0.00 0.00 0.00 84 1013.1
20260502105504 56 0.0 1.0 0.00 0.00 0.00 84 1013.2
20260502105004 56 0.0 1.0 0.00 0.00 0.00 85 1013.3
20260502104524 56 0.0 1.0 0.00 0.00 0.00 85 1013.1
20260502104004 56 293 1.0 2.0 0.00 0.00 0.00 85 1013.2
20260502103504 56 315 1.0 2.0 0.00 0.00 0.00 85 1013.2
20260502103024 56 315 1.0 2.0 0.00 0.00 0.00 86 1013.3
20260502102505 56 315 1.0 2.0 0.00 0.00 0.00 86 1013.4
20260502102004 56 0.0 3.0 0.00 0.00 0.00 86 1013.2
20260502101504 56 0.0 1.0 0.00 0.00 0.00 86 1013.3
20260502101004 56 293 1.0 3.0 0.00 0.00 0.00 86 1013.4
20260502100505 56 315 1.0 3.0 0.00 0.00 0.00 87 1013.4
20260502091504 56 0.0 2.0 0.00 0.00 0.00 89 1013.9
20260502091004 56 225 1.0 2.0 0.00 0.00 0.00 89 1013.8
20260502090504 55 0.0 2.0 0.00 0.00 0.00 89 1013.9
20260502071504 53 0.0 1.0 0.00 0.00 0.00 87 1014.2
20260502071004 53 0.0 1.0 0.00 0.00 0.00 87 1014.1
20260502070504 53 0.0 1.0 0.00 0.00 0.00 87 1014.3
20260502070005 53 0.0 1.0 0.00 0.00 0.00 87 1014.3
20260502065504 53 0.0 1.0 0.00 0.00 0.00 87 1014.3
20260502065004 53 0.0 1.0 0.00 0.00 0.00 87 1014.3
20260502064504 53 0.0 1.0 0.00 0.00 0.00 87 1014.3
20260502064004 53 0.0 1.0 0.00 0.00 0.00 87 1014.3
20260502063524 53 0.0 1.0 0.00 0.00 0.00 86 1014.3
20260502063004 53 0.0 1.0 0.00 0.00 0.00 86 1014.4
20260502062524 53 0.0 1.0 0.00 0.00 0.00 86 1014.3
20260502062003 53 0.0 1.0 0.00 0.00 0.00 86 1014.5
20260502061524 54 0.0 1.0 0.00 0.00 0.00 85 1014.4
20260502061004 54 0.0 1.0 0.00 0.00 0.00 85 1014.3
20260502060504 54 0.0 1.0 0.00 0.00 0.00 85 1014.3
20260502060004 54 0.0 1.0 0.00 0.00 0.00 84 1014.4
20260502055503 54 0.0 1.0 0.00 0.00 0.00 84 1014.4
20260502055009 54 0.0 1.0 0.00 0.00 0.00 84 1014.5
20260502054504 54 0.0 1.0 0.00 0.00 0.00 84 1014.5
20260502054004 54 0.0 1.0 0.00 0.00 0.00 84 1014.5
20260502053503 55 0.0 2.0 0.00 0.00 0.00 84 1014.6
20260502053004 55 0 1.0 2.0 0.00 0.00 0.00 84 1014.5
20260502052524 55 0 1.0 2.0 0.00 0.00 0.00 84 1014.5
20260502052044 55 45 1.0 2.0 0.00 0.00 0.00 84 1014.5
20260502051504 55 0.0 1.0 0.00 0.00 0.00 84 1014.5
20260502051004 55 0.0 1.0 0.00 0.00 0.00 84 1014.4
20260502050504 55 0.0 2.0 0.00 0.00 0.00 83 1014.5
20260502045504 55 0.0 2.0 0.00 0.00 0.00 83 1014.4
20260502045024 56 45 1.0 2.0 0.00 0.00 0.00 83 1014.3
20260502044504 56 45 1.0 2.0 0.00 0.00 0.00 83 1014.4
20260502044004 56 45 1.0 3.0 0.00 0.00 0.00 83 1014.2
20260502043503 56 45 2.0 4.0 0.00 0.00 0.00 82 1014.2
20260502043003 56 45 1.0 3.0 0.00 0.00 0.00 82 1014.1
20260502042504 56 45 1.0 3.0 0.00 0.00 0.00 82 1014.0
20260502042003 56 45 2.0 4.0 0.00 0.00 0.00 81 1014.0
20260502041503 56 45 1.0 3.0 0.00 0.00 0.00 81 1014.0
20260502041003 57 45 1.0 4.0 0.00 0.00 0.00 81 1013.9
20260502040504 57 45 1.0 3.0 0.00 0.00 0.00 81 1013.9
20260502040003 57 45 2.0 4.0 0.00 0.00 0.00 80 1013.8
20260502035504 57 45 1.0 4.0 0.00 0.00 0.00 80 1013.7
20260502035004 57 45 2.0 5.0 0.00 0.00 0.00 80 1013.7
20260502034503 57 45 2.0 4.0 0.00 0.00 0.00 79 1013.5
20260502034003 57 45 2.0 5.0 0.00 0.00 0.00 79 1013.5
20260502033524 57 45 1.0 4.0 0.00 0.00 0.00 78 1013.4
20260502033003 58 45 2.0 4.0 0.00 0.00 0.00 78 1013.3
20260502032504 58 45 2.0 4.0 0.00 0.00 0.00 78 1013.2
20260502032003 58 338 2.0 7.0 0.00 0.00 0.00 77 1013.2
20260502031504 58 45 2.0 5.0 0.00 0.00 0.00 77 1013.1
20260502031004 59 0 2.0 7.0 0.00 0.00 0.00 76 1013.1
20260502030504 59 0 1.0 5.0 0.00 0.00 0.00 76 1013.0
20260502030003 59 45 2.0 4.0 0.00 0.00 0.00 75 1012.9
20260502025544 60 45 2.0 4.0 0.00 0.00 0.00 75 1012.9
20260502025003 60 338 1.0 4.0 0.00 0.00 0.00 74 1012.7
20260502024544 60 45 2.0 5.0 0.00 0.00 0.00 73 1012.8
20260502024003 60 338 2.0 5.0 0.00 0.00 0.00 73 1012.7
20260502023504 61 45 2.0 6.0 0.00 0.00 0.00 72 1012.7
20260502023003 61 45 2.0 8.0 0.00 0.00 0.00 72 1012.7
20260502022523 61 45 3.0 8.0 0.00 0.00 0.00 72 1012.6
20260502022043 61 45 3.0 7.0 0.00 0.00 0.00 72 1012.6
20260502021523 62 45 3.0 7.0 0.00 0.00 0.00 72 1012.6
20260502021003 62 45 3.0 7.0 0.00 0.00 0.00 72 1012.6
20260502020504 62 45 3.0 7.0 0.00 0.00 0.00 72 1012.6
20260502020003 62 45 2.0 7.0 0.00 0.00 0.00 73 1012.5
20260502015503 62 45 3.0 7.0 0.00 0.00 0.00 74 1012.5
20260502015003 63 45 3.0 9.0 0.00 0.00 0.00 76 1012.6
20260502014503 63 45 4.0 7.0 0.00 0.00 0.00 75 1012.6
20260502014003 63 45 4.0 8.0 0.00 0.00 0.00 75 1012.5
20260502013503 63 45 3.0 7.0 0.00 0.00 0.00 74 1012.6
20260502013003 64 45 3.0 8.0 0.00 0.00 0.00 74 1012.5
20260502012503 64 45 2.0 6.0 0.00 0.00 0.00 75 1012.5
20260502012003 64 45 3.0 8.0 0.00 0.00 0.00 75 1012.4
20260502011523 64 45 4.0 10.0 0.00 0.00 0.00 73 1012.6
20260502011003 64 45 4.0 10.0 0.00 0.00 0.00 73 1012.6
20260502010503 65 45 4.0 9.0 0.00 0.00 0.00 72 1012.6
20260502010003 65 45 3.0 8.0 0.00 0.00 0.00 72 1012.6
20260502005543 65 45 4.0 8.0 0.00 0.00 0.00 71 1012.6
20260502005043 65 45 3.0 10.0 0.00 0.00 0.00 70 1012.5
20260502004503 66 45 2.0 7.0 0.00 0.00 0.00 71 1012.7
20260502004003 66 45 3.0 7.0 0.00 0.00 0.00 71 1012.6
20260502003503 66 45 3.0 7.0 0.00 0.00 0.00 70 1012.7
20260502003003 66 45 4.0 10.0 0.00 0.00 0.00 70 1012.6
20260502002543 65 45 4.0 9.0 0.00 0.00 0.00 69 1012.7
20260502002003 65 45 3.0 8.0 0.00 0.00 0.00 70 1012.7
20260502001503 65 45 4.0 9.0 0.00 0.00 0.00 69 1012.7
20260502001003 66 45 5.0 11.0 0.00 0.00 0.00 68 1012.7
20260502000503 66 338 3.0 8.0 0.00 0.00 0.00 69 1012.7
20260502000003 66 45 4.0 9.0 0.00 0.00 0.00 68 1012.8
20260501235503 66 45 3.0 9.0 0.00 0.00 0.00 69 1012.8
20260501235003 66 45 3.0 8.0 0.00 0.00 0.00 69 1012.9
20260501234503 66 45 3.0 8.0 0.00 0.00 0.00 69 1013.1
20260501234003 66 45 4.0 9.0 0.00 0.00 0.00 68 1013.2
20260501233503 66 45 3.0 8.0 0.00 0.00 0.00 68 1013.2
20260501233023 66 45 3.0 8.0 0.00 0.00 0.00 68 1013.1
20260501232503 66 45 4.0 7.0 0.00 0.00 0.00 68 1013.3
20260501232003 66 45 3.0 8.0 0.00 0.00 0.00 69 1013.4
20260501231503 66 45 4.0 7.0 0.00 0.00 0.00 69 1013.4
20260501231003 66 45 4.0 9.0 0.00 0.00 0.00 69 1013.5
20260501230503 66 45 4.0 9.0 0.00 0.00 0.00 68 1013.7
20260501230004 66 45 3.0 8.0 0.00 0.00 0.00 69 1013.7
20260501225503 66 23 4.0 10.0 0.00 0.00 0.00 69 1013.8
20260501225003 66 45 5.0 10.0 0.00 0.00 0.00 69 1013.8
20260501224503 66 45 3.0 9.0 0.00 0.00 0.00 69 1013.9
20260501224003 66 45 3.0 8.0 0.00 0.00 0.00 69 1013.9
20260501223505 67 23 4.0 8.0 0.00 0.00 0.00 68 1014.1
20260501223005 67 45 3.0 7.0 0.00 0.00 0.00 68 1014.3
20260501222505 67 45 3.0 9.0 0.00 0.00 0.00 69 1014.2
20260501222005 67 45 3.0 8.0 0.00 0.00 0.00 70 1014.3
20260501221505 66 45 3.0 7.0 0.00 0.00 0.00 70 1014.4
20260501221025 67 68 4.0 9.0 0.00 0.00 0.00 70 1014.5
20260501220524 67 45 3.0 8.0 0.00 0.00 0.00 70 1014.5
20260501220005 66 45 3.0 9.0 0.00 0.00 0.00 70 1014.6
20260501215525 66 68 3.0 6.0 0.00 0.00 0.00 71 1014.5
20260501215004 66 68 4.0 8.0 0.00 0.00 0.00 71 1014.6
20260501214505 66 45 4.0 8.0 0.00 0.00 0.00 70 1014.7
20260501214005 67 68 4.0 8.0 0.00 0.00 0.00 70 1014.9
20260501213506 66 45 3.0 7.0 0.00 0.00 0.00 71 1014.9
20260501213004 66 45 3.0 7.0 0.00 0.00 0.00 71 1015.0
20260501212504 66 45 4.0 10.0 0.00 0.00 0.00 70 1015.1
20260501212005 65 45 4.0 8.0 0.00 0.00 0.00 71 1015.0
20260501211504 65 45 3.0 7.0 0.00 0.00 0.00 72 1015.0
20260501211025 65 45 4.0 8.0 0.00 0.00 0.00 72 1015.0
20260501210505 65 45 3.0 10.0 0.00 0.00 0.00 73 1015.0
20260501210005 65 45 4.0 7.0 0.00 0.00 0.00 72 1015.1
20260501205505 65 45 4.0 9.0 0.00 0.00 0.00 72 1015.0
20260501205005 65 45 4.0 7.0 0.00 0.00 0.00 72 1015.1
20260501204044 64 45 3.0 8.0 0.00 0.00 0.00 73 1015.2
20260501203504 65 45 3.0 9.0 0.00 0.00 0.00 73 1015.2
20260501203004 65 45 3.0 7.0 0.00 0.00 0.00 72 1015.2
20260501202504 65 45 3.0 7.0 0.00 0.00 0.00 73 1015.2
20260501202004 64 45 3.0 7.0 0.00 0.00 0.00 73 1015.4
20260501201505 64 45 3.0 7.0 0.00 0.00 0.00 73 1015.4
20260501201004 64 45 3.0 7.0 0.00 0.00 0.00 72 1015.3
20260501200504 65 45 3.0 6.0 0.00 0.00 0.00 73 1015.4
20260501200004 64 45 3.0 7.0 0.00 0.00 0.00 73 1015.4
20260501195505 64 45 3.0 9.0 0.00 0.00 0.00 72 1015.5
20260501195005 65 45 2.0 7.0 0.00 0.00 0.00 72 1015.6
20260501194524 65 45 3.0 8.0 0.00 0.00 0.00 73 1015.5
20260501194004 64 45 3.0 8.0 0.00 0.00 0.00 73 1015.6
20260501193505 64 45 2.0 6.0 0.00 0.00 0.00 73 1015.7